Location: Danizy
(49.6657°N, 3.3920°E)
Time: 07:25:49
(UTC+00:00)

Daily predictions for brighter satellites

Satellite Brightness Start Highest point End
(mag) Time Altitude Azimuth Time Altitude Azimuth Time Altitude Azimuth
Cosmos 1190 Rocket 4.2 17:47:24 10° SSW 17:52:38 82° WNW 17:57:52 10° NNE
NOSS 3-1 (A) 4.4 17:48:23 10° NW 17:55:44 75° SW 18:04:29 10° SSE
Cosmos 2369 4.3 17:51:58 10° S 17:57:10 37° ESE 18:02:22 10° NE
CZ-4C R/B 4.2 17:57:29 10° N 18:01:46 60° WNW 18:05:52 10° SSW
CZ-4 R/B 4.5 17:58:56 10° SSE 18:03:02 88° WSW 18:07:11 10° NNW
CZ-4B DEB 4.5 17:58:35 10° SSE 18:04:02 77° WSW 18:09:33 10° NNW
SL-16 R/B 3.8 18:06:43 10° ESE 18:08:35 12° E 18:10:27 10° ENE
USA 215 3.5 18:02:28 10° ENE 18:09:01 77° NNW 18:15:32 10° WSW
USA 186 3.7 18:07:06 10° E 18:09:06 15° ENE 18:11:07 10° NNE
Cosmos 1844 Rocket 4.3 18:09:36 10° N 18:13:38 19° NE 18:17:37 10° E
SL-4 R/B 2.3 18:09:19 10° WNW 18:13:43 73° N 18:18:03 12° E
Cosmos 1437 Rocket 4.5 18:12:27 10° ESE 18:14:09 13° E 18:15:50 10° ENE
Cosmos 1741 Rocket 4.4 18:10:14 10° S 18:15:07 40° ESE 18:20:01 10° NE
ARGOS Delta rocket 4.1 18:09:53 10° NNE 18:15:11 57° E 18:20:12 10° S
SKYMED 3 4.5 18:13:20 10° NNE 18:17:29 88° WNW 18:21:36 10° SSW
Timation 2 Rocket 4.1 18:11:04 10° NNW 18:17:34 63° NE 18:23:45 10° SE
BREEZE-M DEB (TANK) 4.4 18:16:56 10° SW 18:21:29 53° SE 18:39:05 10° ENE
Okean O Rocket 1.6 18:18:04 10° SSE 18:22:21 62° ENE 18:26:42 10° N
Cosmos 2219 4.3 18:18:52 10° NW 18:24:24 49° WSW 18:29:53 10° S
Nadezhda 4 Rocket 4.4 18:19:25 10° SSE 18:25:16 41° E 18:31:07 10° NNE
Cosmos 1814 Rocket 4.4 18:20:23 10° NNW 18:25:27 43° ENE 18:30:24 10° SE
Cosmos 1242 Rocket 2.4 18:24:30 10° S 18:28:03 78° E 18:31:37 10° NNE
Spot 1 4.0 18:24:17 10° NNE 18:28:37 87° ESE 18:32:44 10° SSW
BREEZE M DEB (TANK) 4.3 18:25:27 10° SSW 18:29:36 16° SSE 18:31:25 13° SE
Cosmos 1809 Rocket 4.4 18:24:16 10° S 18:30:14 62° E 18:36:14 10° NNE
SL-14 R/B 3.2 18:26:31 10° N 18:30:28 72° E 18:34:26 10° SSE
Cosmos 2263 Rocket 2.2 18:26:15 10° NNW 18:31:58 71° ENE 18:37:39 10° SE
Cosmos 2227 4.5 18:29:22 10° NNW 18:34:50 49° NE 18:39:32 14° SE
Cosmos 1805 3.1 18:31:00 10° S 18:34:51 77° E 18:38:45 10° NNE
Cosmos 2360 4.5 18:29:14 10° SW 18:34:57 74° WNW 18:40:42 10° NNE
Cosmos 1674 Rocket 3.5 18:30:33 10° N 18:34:57 67° ENE 18:39:21 10° SSE
YAOGAN 1 2.6 18:31:53 10° SSE 18:36:12 83° W 18:40:33 10° NNW
Meteor 2-5 Rocket 4.3 18:31:45 10° N 18:36:51 35° ENE 18:41:16 13° SE
COBE Rocket 4.1 18:33:38 10° S 18:38:32 75° W 18:43:19 10° NNW
Cosmos 1726 2.2 18:35:00 10° S 18:38:32 51° E 18:42:05 10° NNE
OBJECT-B 1.0 18:38:57 27° E 18:39:32 30° ENE 18:41:53 10° N
H-2A R/B 4.0 18:39:28 16° ENE 18:40:03 16° ENE 18:42:32 10° NNE
Cosmos 2082 4.3 18:37:42 10° NW 18:43:21 61° WSW 18:48:59 10° SSE
IRIDIUM 106 4.3 18:40:42 10° S 18:45:51 63° E 18:51:01 10° N
Cosmos 1766 3.3 18:45:00 10° S 18:48:48 54° E 18:52:40 10° NNE
IRS-1C Rocket 4.5 18:46:16 15° SE 18:50:18 43° ENE 18:55:17 10° N
Cosmos 1025 Rocket 4.1 18:46:53 10° NNE 18:50:27 24° ENE 18:51:17 23° E
Cosmos 2084 Rocket 4.5 18:47:31 10° NNW 18:50:49 27° NNE 18:52:17 21° ENE
Cosmos 1697 Rocket 3.4 18:47:23 10° SW 18:52:53 55° NW 18:58:26 10° NNE
CSL-04 Debris 4.2 18:50:35 10° SSE 18:55:54 61° ENE 19:01:14 10° N
Cosmos 2221 Rocket 4.3 18:52:57 10° NNW 18:57:23 56° W 19:01:49 10° S
Cosmos 1975 Rocket 3.8 18:55:51 10° N 18:59:50 32° ENE 19:00:50 28° E
Landsat 7 4.2 19:00:02 25° ESE 19:02:12 41° ENE 19:06:38 10° N
IGS 5A 3.5 18:59:48 22° SE 19:02:13 53° ENE 19:06:17 10° N
Cosmos 1092 Rocket 4.3 18:56:20 10° SSE 19:02:15 44° E 19:08:09 10° NNE
Cosmos 1378 Rocket 4.0 18:59:46 10° NNW 19:04:08 64° W 19:08:26 10° S
Resurs 01 Rocket 2.8 19:05:25 25° ENE 19:05:45 25° ENE 19:09:22 10° N
Cosmos 968 Rocket 3.8 19:05:05 10° S 19:10:00 42° ESE 19:14:56 10° NE
ATLAS 2AS CENTAUR R/B 4.4 19:08:47 10° WNW 19:15:02 27° N 19:21:00 10° NE
Cosmos 1470 3.0 19:15:56 43° E 19:15:56 43° E 19:19:21 10° NNE
ISS -2.7 19:19:07 10° W 19:22:14 35° SSW 19:22:45 33° S
Cosmos 2084 4.1 19:19:03 10° WSW 19:22:44 46° NW 19:25:48 14° NNE
Cosmos 2322 Rocket 3.8 19:19:25 10° SSE 19:27:51 18° NE 19:29:27 10° NE
Ariane Rocket 4.0 19:25:15 27° ENE 19:25:23 27° ENE 19:29:38 10° N
CSL-04 Rocket 3.6 19:21:40 16° SSE 19:25:58 89° WSW 19:31:25 10° NNW
Okean-O 2.5 19:24:10 28° SSE 19:26:31 88° E 19:30:59 10° NNW
Terra 4.1 19:28:16 11° NE 19:28:16 11° NE 19:28:45 10° NE
Resurs 1-3 3.5 19:26:16 40° SSE 19:27:47 73° ENE 19:32:11 10° N
CZ-4 R/B 3.1 19:24:12 10° SSW 19:27:59 34° W 19:31:49 10° NNW
Gbstr 26 Del rocket 4.4 19:21:54 10° SW 19:29:34 70° SSE 19:34:41 25° ENE
SJ-6B 2.9 19:30:23 32° S 19:31:58 67° WSW 19:35:44 10° NNW
Cosmos 1570 Rocket 4.0 19:26:56 10° NNW 19:32:14 85° WSW 19:34:48 31° SSE
Cosmos 1980 Rocket 3.0 19:27:38 10° SW 19:33:08 53° NW 19:38:39 10° NNE
JB-3 4.2 19:33:59 10° NNE 19:38:05 77° ESE 19:38:37 64° SSE
Cosmos 1627 Rocket 4.3 19:32:14 10° S 19:38:17 71° E 19:44:24 10° NNE
USA 186 3.0 19:40:04 32° SW 19:41:04 42° W 19:44:17 10° NNW
deb Chang Zheng 4 3.3 19:41:18 71° ENE 19:41:20 71° ENE 19:45:29 10° N
Cosmos 1428 Rocket 4.4 19:39:32 10° S 19:45:43 86° E 19:52:00 10° N
Cosmos 2195 Rocket 4.4 19:39:39 10° S 19:45:52 90° S 19:52:13 10° N
Cosmos 2278 4.0 19:42:44 10° SW 19:48:24 68° WNW 19:54:06 10° NNE
Meteor 1-24 Rocket 3.6 19:43:29 10° NNW 19:48:48 76° W 19:51:25 31° S
Cosmos 1437 Rocket 3.2 19:46:06 10° SSW 19:49:48 57° WNW 19:53:31 10° N
SL-16 R/B 2.0 19:46:00 10° SSW 19:51:37 69° ESE 19:57:16 10° NNE
USA 215 3.9 19:47:18 20° ENE 19:51:39 49° N 19:57:53 10° W
SL-4 R/B 2.6 19:48:47 10° WNW 19:53:14 55° SSW 19:53:27 55° SSW
Cosmos 2208 Rocket 4.2 19:50:14 10° NNW 19:55:35 70° WSW 19:57:21 42° S
Cosmos 1844 Rocket 2.6 19:52:51 10° NNW 19:58:33 74° ENE 19:59:17 65° ESE
Okean O Rocket 4.4 19:56:20 10° SW 19:59:07 16° W 20:01:55 10° NW
Meteor 1-22 Rocket 4.3 19:55:46 10° SSW 20:01:08 74° WNW 20:06:45 10° N
USA 81 4.2 19:56:18 10° N 20:01:33 70° W 20:03:45 35° SSW
Cosmos 2278 Rocket 3.9 19:58:42 10° N 20:02:42 19° NE 20:03:03 19° NE
Cosmos 2026 Rocket 3.9 19:57:19 10° SSW 20:03:22 80° W 20:09:29 10° N
Cosmos 1782 Rocket 4.0 20:06:54 40° SW 20:08:10 57° WNW 20:12:29 10° N
Cosmos 1553 Rocket 3.9 20:01:56 10° N 20:08:18 81° E 20:09:43 57° SSE
MOS 1 4.2 20:08:42 67° SSE 20:09:32 88° ENE 20:15:15 10° NNW
OBJECT-B 3.8 20:09:48 11° W 20:09:48 11° W 20:10:21 10° WNW
Cosmos 1943 Rocket 4.5 20:10:39 10° N 20:12:15 11° NNE 20:13:27 10° NE
H-2A R/B 3.3 20:15:55 46° NW 20:15:55 46° NW 20:18:57 10° NNW
Cosmos 2263 Rocket 4.3 20:11:04 10° NW 20:15:20 22° WSW 20:19:35 10° SSW
USA 281 3.7 20:16:22 43° ENE 20:16:46 43° NE 20:22:55 10° NNW
Cosmos 1844 3.5 20:14:34 10° NNW 20:20:06 88° N 20:20:06 88° N
Cosmos 1025 Rocket 4.3 20:24:11 10° NNW 20:28:09 38° W 20:28:10 38° W
MetOp-B 4.3 20:31:47 66° N 20:31:47 66° N 20:36:24 10° NNW
SPOT 1/Viking Rocket 3.8 20:32:06 62° W 20:32:06 62° W 20:37:10 10° NNW
SPOT 3 Rocket 4.3 20:37:48 44° N 20:37:48 44° N 20:41:23 10° N
Cosmos 2360 Rocket 4.4 20:46:44 14° NNE 20:46:44 14° NNE 20:47:31 10° NNE
Resurs 01 Rocket 3.0 20:42:59 37° WNW 20:42:59 37° WNW 20:46:17 10° NNW
Ariane Rocket 4.2 21:05:27 40° NW 21:05:27 40° NW 21:09:04 10° NNW
Terra 3.8 21:07:10 23° N 21:07:10 23° N 21:09:02 10° N
ATLAS 2AS CENTAUR R/B 3.8 21:01:36 10° NW 21:08:08 33° NNE 21:09:00 32° NE
Cosmos 2322 Rocket 3.2 21:09:31 43° NNW 21:09:31 43° NNW 21:13:51 10° NNE
Gbstr 26 Del rocket 4.5 21:09:11 10° W 21:17:10 78° NNW 21:17:10 78° NNW
NOSS 3-4 (A) 4.0 21:12:44 10° NW 21:18:30 65° NNW 21:18:30 65° NNW
NOSS 3-4 (C) 4.0 21:12:50 10° NW 21:18:36 65° NNW 21:18:36 65° NNW
USA 215 3.8 21:34:39 51° N 21:34:39 51° N 21:40:24 10° WNW
SL-16 R/B 4.0 21:31:25 10° WSW 21:36:14 28° NW 21:41:04 10° NNE
Cosmos 2278 Rocket 3.9 21:42:08 10° NNW 21:44:53 30° NNW 21:44:53 30° NNW
Cosmos 1943 Rocket 4.2 21:52:47 10° NNW 21:54:57 21° N 21:54:57 21° N
USA 281 4.3 22:03:15 38° WNW 22:03:15 38° WNW 22:07:35 10° NW
Cosmos 2369 Rocket 4.5 21:57:30 10° N 22:00:00 17° NNE 22:00:00 17° NNE
Cosmos 2360 Rocket 4.4 22:28:27 21° NNW 22:28:27 21° NNW 22:31:05 10° NNE
ATLAS 2AS CENTAUR R/B 4.2 22:52:56 10° NW 22:56:24 31° NW 22:56:24 31° NW
